Miami Beach, Florida, United States (33109)
Lat: 25.79N, Lon: 80.13W
Wx Zone: FLZ173
Local Info
Past Weather Observations for Sunday, July 20, 2014

NOTE: This archive is for the closest National Weather Service station to Miami Beach. Information may differ from the station used for current weather conditions.

Click here for Long-term Archive

Time Weather Temperature Dewpoint Humidity Pressure Winds Precip Visibility
23:53
Overcast
79°F / 26°C 77°F / 25°C 94% 30.06 in
(1018 mb)
WNW 3.5 mph
(WNW 6 kph)
- 10SM
22:53
Overcast
Cumulonimbus Clouds Observed
81°F / 27°C 77°F / 25°C 89% 30.06 in
(1018 mb)
SSE 3.5 mph
(SSE 6 kph)
0.30 in
(7.62 mm)
10SM
21:53
Mostly Cloudy
Partly Cloudy
82°F / 28°C 75°F / 24°C 79% 30.06 in
(1018 mb)
SE 3.5 mph
(SE 6 kph)
- 10SM
20:53
Mostly Cloudy
Partly Cloudy
84°F / 29°C 75°F / 24°C 74% 30.06 in
(1018 mb)
E 9.2 mph
(E 15 kph)
- 10SM
19:53
Mostly Cloudy
84°F / 29°C 75°F / 24°C 74% 30.04 in
(1017 mb)
ENE 11.5 mph
(ENE 19 kph)
- 10SM
18:53
Mostly Cloudy
84°F / 29°C 75°F / 24°C 74% 30.04 in
(1017 mb)
ENE 8.1 mph
(ENE 13 kph)
- 10SM
17:53
Mostly Cloudy
Partly Cloudy
88°F / 31°C 73°F / 23°C 62% 30.04 in
(1017 mb)
E 12.7 mph
(E 20 kph)
- 10SM
16:53
Mostly Cloudy
88°F / 31°C 75°F / 24°C 66% 30.01 in
(1016 mb)
SE 8.1 mph
(SE 13 kph)
- 10SM
15:53
Mostly Cloudy
86°F / 30°C 77°F / 25°C 75% 30.01 in
(1016 mb)
Calm 0.00 in
(0.00 mm)
10SM
14:53
Mostly Cloudy
Light Rain
82°F / 28°C 77°F / 25°C 84% 30.04 in
(1017 mb)
SE 4.6 mph
(SE 7 kph)
0.46 in
(11.68 mm)
8SM
14:15
Mostly Cloudy
Thunder Storms
81°F / 27°C 73°F / 23°C 79% 30.04 in
(1017 mb)
SE 10.4 mph
(SE 17 kph)
0.12 in
(3.05 mm)
3SM
14:07
Mostly Cloudy
Thunder Storms
81°F / 27°C 73°F / 23°C 79% 30.04 in
(1017 mb)
SE 13.8 mph
(SE 22 kph)
0.02 in
(0.51 mm)
2SM
13:56
Mostly Cloudy
Thunder Storms
82°F / 28°C 73°F / 23°C 74% 30.04 in
(1017 mb)
SW 9.2 mph
(SW 15 kph)
0.00 in
(0.00 mm)
10SM
13:53
Mostly Cloudy
Light Rain
82°F / 28°C 73°F / 23°C 74% 30.04 in
(1017 mb)
SW 15 mph
(SW 24 kph)
0.02 in
(0.51 mm)
10SM
12:53
Mostly Cloudy
91°F / 33°C 73°F / 23°C 56% 30.04 in
(1017 mb)
Calm - 10SM
11:53
Mostly Cloudy
90°F / 32°C 73°F / 23°C 59% 30.06 in
(1018 mb)
ENE 6.9 mph
(ENE 11 kph)
- 10SM
10:53
Mostly Cloudy
90°F / 32°C 73°F / 23°C 59% 30.06 in
(1018 mb)
Variable 5.8 mph
(Variable 9 kph)
- 10SM
09:53
Partly Cloudy
88°F / 31°C 73°F / 23°C 62% 30.06 in
(1018 mb)
ESE 4.6 mph
(ESE 7 kph)
- 10SM
08:53
Mostly Cloudy
88°F / 31°C 75°F / 24°C 66% 30.06 in
(1018 mb)
E 4.6 mph
(E 7 kph)
- 10SM
07:53
Mostly Cloudy
84°F / 29°C 77°F / 25°C 79% 30.06 in
(1018 mb)
Calm - 10SM
06:53
Partly Cloudy
82°F / 28°C 79°F / 26°C 89% 30.06 in
(1018 mb)
Calm - 10SM
05:53
Mostly Cloudy
79°F / 26°C 75°F / 24°C 89% 30.04 in
(1017 mb)
Calm - 10SM
04:53
Mostly Cloudy
79°F / 26°C 75°F / 24°C 89% 30.04 in
(1017 mb)
NNW 3.5 mph
(NNW 6 kph)
- 10SM
03:53
Mostly Cloudy
81°F / 27°C 75°F / 24°C 84% 30.04 in
(1017 mb)
Calm - 10SM
02:53
Mostly Cloudy
79°F / 26°C 75°F / 24°C 89% 30.01 in
(1016 mb)
Calm - 10SM
01:53
Mostly Cloudy
79°F / 26°C 75°F / 24°C 89% 30.04 in
(1017 mb)
Calm - 10SM
00:53
Partly Cloudy
82°F / 28°C 75°F / 24°C 79% 30.06 in
(1018 mb)
Calm - 10SM
Time Weather Temperature Dewpoint Humidity Pressure Winds Precip Visibility


Weather for websites

WeatherForYou.com, LLC is not responsible for any damages or problems caused by this service. Current weather conditions are obtained from the closest station including government and personal stations which may have varying degrees of accuracy. Weather forecasts are derived from the NOAA NDFD. Like all things, this site belongs to Jesus Christ... He just trusts me to maintain it. If you have any questions or comments email webmaster@weatherforyou.com

Copyright © 2014, WeatherForYou.com LLC. All rights reserved.